User: anonymous   Login
Location: Unspecified
(0.0000°N, 0.0000°E)
Time: 22:30:35
(UTC+00:00)
Language:

AO-7 - Orbit

View from above orbital plane
View from above orbital plane
View from above satellite
View from above satellite

Ground track
Ground track

The orbit data is extracted from the following two-line orbital elements,

1 07530U 74089B   18174.87016715 -.00000040  00000-0  27671-4 0  9991
2 07530 101.6872 142.0902 0011930 324.6092  62.9298 12.53633099995437
Epoch (UTC): 23 June 2018 20:53:02
Eccentricity: 0.0011930
inclination: 101.6872°
perigee height: 1440 km
apogee height: 1458 km
right ascension of ascending node: 142.0902°
argument of perigee: 324.6092°
revolutions per day: 12.53633099
mean anomaly at epoch: 62.9298°
orbit number at epoch: 99543

The dashed part of the orbit path shows where the satellite is in the earth's shadow,  

DLR